NOAA NWS Hourly Roundups by Site

Regional Weather Roundup for State College, PA

To Select Another Site Choose from List

Select Site:  

000
ASUS41 KCTP 080310
RWRCTP

REGIONAL WEATHER ROUNDUP
NATIONAL WEATHER SERVICE STATE COLLEGE PA
1100 PM EDT TUE JUL 07 2020

Note: "fair" indicates few or no clouds below 12,000 feet with no
significant weather and/or obstructions to visibility.

* = STATION THAT DOES NOT REPORT PRECIPITATION /E.G. RAIN...SNOW...ETC/
    THUNDER OR FOG.

PAZ002>004-007>009-013>016-020>023-029>032-080400-
WESTERN PENNSYLVANIA

CITY           SKY/WX    TMP DP  RH WIND       PRES   REMARKS
ERIE           CLEAR     76  66  71 S9        29.97R
MEADVILLE      PTCLDY    70  66  87 CALM      30.03R
FRANKLIN       PTCLDY    70  67  90 CALM      30.05S
NEW CASTLE     FAIR      70  69  97 CALM      30.03R
BEAVER COUNTY  MOCLDY    70  68  93 SW3       30.03S FOG
BUTLER         MOCLDY    69  68  96 SW5       30.03R FOG
PITTSBURGH INT CLOUDY    70  67  90 S6        30.01S
PITTSBURGH     MOCLDY    70  68  93 S8        30.02S
INDIANA*       CLOUDY    70  70 100 CALM      30.08F
LATROBE        MOCLDY    70  70 100 SE7       30.04S
WASHINGTON CO* MOCLDY    71  69  93 S6        30.05S
$$

PAZ004>006-010>012-017>019-024>028-033>037-041-042-045-046-049>053-080400-
CENTRAL PENNSYLVANIA

CITY           SKY/WX    TMP DP  RH WIND       PRES   REMARKS
BRADFORD       CLOUDY    71  65  81 VRB3      30.08R
ST MARYS       LGT RAIN  66  66 100 S3        30.10F
DUBOIS         CLOUDY    70  68  93 SE6       30.06F
CLEARFIELD     CLOUDY    71  66  84 E3        30.08F
JOHNSTOWN      LGT RAIN  68  64  87 S3        30.10S
SOMERSET       MOCLDY    68  66  94 SE8       30.10F
ALTOONA        CLOUDY    74  70  87 CALM      30.08S
STATE COLLEGE  CLOUDY    73  68  85 CALM      30.08R
REEDSVILLE     MOCLDY    73  72  94 CALM      30.05
WELLSBORO      FAIR      68  68 100 SW10      30.07S FOG
WILLIAMSPORT   LGT RAIN  76  68  76 CALM      30.03S
SELINSGROVE    MOCLDY    72  70  93 CALM      30.04S
FT INDIANTOWN  MOCLDY    72  72  98 CALM      30.04R
CAPITAL CITY   PTCLDY    78  70  76 CALM      30.03S
HARRISBURG     PTCLDY    78  72  81 SE3       30.02S
YORK           PTCLDY    74  70  87 CALM      30.04R
$$

PAZ038>040-043-044-047-048-054-055-060>062-067>071-080400-
EASTERN PENNSYLVANIA

CITY           SKY/WX    TMP DP  RH WIND       PRES   REMARKS
TOWANDA        CLEAR     72  70  94 CALM      30.04S
SCRANTON       MOCLDY    76  68  76 CALM      30.05R
MOUNT POCONO   CLOUDY    71  69  93 SE7       30.10R
HAZLETON       CLOUDY    72  68  88 CALM      30.13R
LEHIGHTON      CLOUDY    70  70 100 CALM      30.05R
ALLENTOWN      MOCLDY    79  71  76 S8        30.03S
QN CITY/ALNTWN FAIR      79  72  78 S6        30.05R
QUAKERTOWN*    CLEAR     77  73  88 S5        30.05S
PERKASIE*      PTCLDY    73  73 100 CALM      30.06S FOG
DOYLESTOWN     CLEAR     77  70  79 S3        30.04R
READING          N/A    N/A N/A N/A MISG      30.03R
LANCASTER      PTCLDY    78  73  84 S6        30.04R
COATESVILLE    PTCLDY    73  72  94 CALM      30.07F
WEST CHESTER   CLEAR     77  70  78 CALM      30.06R
POTTSTOWN      CLEAR     76  70  82 S5        30.06R
BLUE BELL      CLEAR     76  70  83 S5        30.05S
NORTH PHILA    CLEAR     76  71  85 S3        30.06R
PHILADELPHIA   CLEAR     78  71  79 S6        30.04S
$$



 

View Past Reports for State College, PA.

Products Courtesy of NOAA-NWS
NWS Information Parsing Script by Ken True at Saratoga Weather - Script by SE Lincoln Weather.